Regional Weather Roundup
Issued by NWS Midland/Odessa, TX

Home | Current Version | Previous Version | Text Only | Print | Product List | Glossary On
Versions: 1 2 3 4 5 6 7 8 9 10 11 12 13 14 15 16 17 18 19 20 21 22 23 24 25 26 27 28 29 30 31 32 33 34 35 36 37 38 39 40 41 42 43 44 45 46 47 48 49 50
000
ASUS44 KMAF 261110
RWRMAF
MIDLAND AREA WEATHER ROUNDUP
NATIONAL WEATHER SERVICE MIDLAND TX
500 AM CST FRI DEC 26 2014

...IN SOUTHWEST TEXAS AND SOUTHEAST NEW MEXICO...

CITY           SKY/WX    TMP DP  RH WIND       PRES   REMARKS
ALPINE         CLEAR     53  19  26 SW15G21   29.89S
ANDREWS        FAIR      43  31  61 S14       29.77S WCI  36
ARTESIA        CLEAR     34  23  64 S7        29.74F WCI  28
BIG SPRING     MOCLDY    47  34  60 S16       29.82S
CARLSBAD       CLEAR     35  25  66 E3        29.73S
DRYDEN           N/A     41  34  76 N8        29.83F WCI  36
FORT STOCKTON  CLEAR     41  30  65 S10       29.78S WCI  35
GUAD PASS      NOT AVBL
HOBBS          CLEAR     37  28  70 S9        29.77S WCI  31
MARFA          CLEAR     28  16  59 CALM      29.88S
MIDLAND AIRPK  PTCLDY    47  33  58 S13       29.78F
MIDLAND INTL   PTCLDY    46  32  58 S14       29.78F WCI  40
ODESSA         PTCLDY    46  31  55 S14       29.79S WCI  40
PECOS          CLEAR     34  26  72 N6        29.76S WCI  29
PRESIDIO       FAIR      53  23  30 NE5       29.82S
SEMINOLE       CLEAR     35  29  79 CALM      29.77F
SNYDER         CLOUDY    45  37  71 S12       29.81S WCI  40
WINK           CLEAR     43  28  55 SE8       29.76F WCI  38
$$
...OTHER STATIONS IN TEXAS...

CITY           SKY/WX    TMP DP  RH WIND       PRES   REMARKS
ABILENE        PTCLDY    49  40  71 S20G29    29.81S
AMARILLO       CLEAR     37  24  59 NW7       29.77R WCI  32
AUSTIN         MOCLDY    55  51  86 S7        29.93F
BROWNSVILLE    CLOUDY    65  63  93 SE16      29.91F
CORPUS CHRISTI CLOUDY    66  60  81 S18       29.92F
DALLAS FTW     CLOUDY    53  46  77 SE10      29.91F
DEL RIO        CLOUDY    49  45  86 E9        29.87F
EL PASO        MOCLDY    48  30  49 W13       29.77R
HOUSTON INT    CLOUDY    62  55  77 SE7       30.00F
LUBBOCK        CLEAR     38  29  70 S8        29.77S WCI  32
SAN ANGELO     MOCLDY    51  42  71 S14G22    29.84S
SAN ANTONIO    CLOUDY    56  50  80 CALM      29.94F
WACO           CLOUDY    53  48  83 SE8       29.92F
WICHITA FALLS  NOT AVBL
$$
...OTHER LOCATIONS IN NEW MEXICO...

CITY           SKY/WX    TMP DP  RH WIND       PRES   REMARKS
ALAMAGORDO     CLOUDY    45  32  61 SW10      29.78R WCI  39
ALBUQUERQUE    MOCLDY    31  30  96 S6        29.74F WCI  25
CANNON AFB     CLEAR     28  21  73 S5        29.71F WCI  23
CLOVIS         CLEAR     27  19  74 S9        29.71F WCI  17
HOLLOMAN AFB   DRIZZLE   45  36  70 W22       29.76R WCI  36
ROSWELL        CLEAR     34  22  61 S12       29.71S WCI  25
RUIDOSO        LGT SNOW  32  28  86 SW5       29.76S WCI  27
SANTA FE       CLOUDY    27  24  89 S6        29.71F WCI  20
TRUTH OR CONSE MOCLDY    40  26  57 SW7       29.73R WCI  35
TUCUMCARI      CLEAR     29  23  78 NE18G29   29.75R WCI  16
$$


USA.gov is the U.S. government's official web portal to all federal, state and local government web resources and services.